Top 250   HF   UTC   Spotter   Comment  
W9IMS   18140.0   25 May 01:15   NN3V   56 San Digo INDY SPC EVENT
W1YW   7013.2   25 May 01:14   VA2TTA   CW
W6LG   14225.0   25 May 01:14   ON8KW   CQ over N-pole
KP4CPC   7016.0   25 May 01:14   UA1ZFG   tnx QSO
UR5VFS   7144.0   25 May 01:14   N4RSS  
D4Z   14030.0   25 May 01:13   W3LPL   Heard in PA and NC
CO6DE   10121.1   25 May 01:13   AF5Z  
KL7SB/VP9   7027.0   25 May 01:13   N4NQ  
N4HID   18145.0   25 May 01:12   KC5KBN   Loud and calling CQ
VI9ANZAC   21150.0   25 May 01:12   VK3PF/9   CQ CQ
VK9NT   21087.7   25 May 01:12   W3KX   UP 1 WORKABLE IN MD
PJ2/PF4T   21088.2   25 May 01:11   N1DID  
PV8ADI   7025.6   25 May 01:11   VA2TTA   CW
N5XZ   28488.0   25 May 01:11   WE0A   PHONE, 57 EL29co -> EN34ad
VK9NT   21087.0   25 May 01:11   K9IO   RTTY, Up 1 - Weak but workable!
N2ATB   7021.9   25 May 01:11   VA2TTA   CW
KL7SB/VP9   7027.0   25 May 01:10   KH6MB/W5   CW
KL7SB/VP9   7027.0   25 May 01:09   W3LPL   Heard in PA and NC
W9IMS   14249.0   25 May 01:09   W9TC   2nd race INDY 500
OY1R   14014.1   25 May 01:08   W3LPL   Heard in PA
JA1DFP   21050.0   25 May 01:07   DW3TRZ   TU fer QSO OP Katsu 599
PJ2/PF4T   21088.2   25 May 01:06   EA1AUS   CQ CQ RTTY
RZ3ZM   14214.0   25 May 01:06   KC3FNG   EN90WO<>KO85SX 57 in pittsburgh
VK9NT   21087.8   25 May 01:05   JA2HYD   RTTY UP
VK9NT   21087.8   25 May 01:06   W5UHQ   RTTY
KA6U   14270.0   25 May 01:04   W9KXI   NPOTA NP09
VI9ANZAC   7090.0   25 May 01:03   VK3MEG   just qsyed to here
UR5VFS   7144.0   25 May 01:04   VP9NI   Great signal to Bermuda thx
VK9NT   21087.8   25 May 01:03   VK6RC   559 into perth up 1
KD4IJS   28488.0   25 May 01:02   N5XZ   10-10 net houston tx
VI9ANZAC   14221.0   25 May 01:01   VK3MEG   special call
N4HID   18145.0   25 May 01:01   N4HID   cq from ky
PZ50X   7014.0   25 May 01:00   UR8GM   TNX 73 UP
W4TJE   3530.0   25 May 00:59   OM3SX  
PJ2/PF4T   21087.7   25 May 00:58   W3RMS  
KH6OO   14078.0   25 May 00:57   UN7TK   JT9 - 26 dB William Honolulu
PZ50X   7014.2   25 May 00:56   YV5TNT   tnx very signal up1.8
CO8ZZ   14210.0   25 May 00:56   W9KXI  
PZ50X   7014.0   25 May 00:54   YV5JGO   UP
KA6U   14270.0   25 May 00:54   K4WES   NPOTA NP09 CQing
K4BAI   14052.0   25 May 00:53   KF4ILV   CQ
CO8ZZ   14210.0   25 May 00:53   W9II/M   cq cq
PZ50X   7014.1   25 May 00:53   N7ELL   QSX 7015.60
N0TA   14051.0   25 May 00:52   KF4ILV   CQ
R9JQ   14082.5   25 May 00:53   KB3OZC   rtty
VK9NT   21088.0   25 May 00:51   WV2I   Tnx FB sig in GA new mode
PZ50X   7014.2   25 May 00:51   W1ZZ   wrked 100w and dipole
UR5VFS   7144.0   25 May 00:50   WA2VUY  
PJ2/PF4T   21087.0   25 May 00:50   PF4T   rtty
UT7HA   7176.0   25 May 00:50   N1DID  
PZ50X   7014.2   25 May 00:49   NZ3O   SOLID S9 PLUS IN PA
KB7N   14078.0   25 May 00:49   UN7TK   JT9 - 22 dB Mark Redmond
VK9NT   21087.9   25 May 00:48   N4KG   RTTY 559 ALA - wkd UP 1
PZ50X   7014.0   25 May 00:48   UA1ZFG   tnx QSO
VI9ANZAC   14221.0   25 May 00:48   VK2HBG   59+ Into VK/ CQ CQ DX.
PZ50X   7014.2   25 May 00:48   W3LPL   Heard in MA
PZ50X   10105.8   25 May 00:47   NZ3O   GREAT CALL WPX CW WKND
EY7AD   14070.0   25 May 00:46   EA7JKU   correct call sorry 73
EY7DA   14070.0   25 May 00:45   EA7JKU   cq cq psk63 tnx qso 73
VI9ANZAC   14221.0   25 May 00:44   VK6RC   5/5 into perth getting stronger
WP4JT   14085.0   25 May 00:44   R9JQ   CQ
WN8U   14334.0   25 May 00:44   NZ3O   HEAVY QSB TNX TR04
R9JQ   14085.0   25 May 00:44   WP4JT   TNX ANDREY BEST 73 RTTY
RZ3ZM   14214.0   25 May 00:44   W6LG  
PZ50X   10105.8   25 May 00:43   KT8Y  
EK4JJ   10111.1   25 May 00:44   W3LPL   Heard in NH
PZ50X   10105.9   25 May 00:43   W3LPL   Heard in MA
UN7TX   7002.0   25 May 00:43   PY7KA   CQing - heard in SA
UN7TX   7002.1   25 May 00:42   W3LPL   Heard in VA
UA1ZFG   7022.3   25 May 00:41   UR3EL   tnx QSO
W0WF/B   28204.0   25 May 00:40   KW4RZ   EM60QK<ES>EM48RR
K9EJ/B   28206.0   25 May 00:40   KW4RZ   EM60QK<ES>EM59UG
AC2GI   14078.0   25 May 00:39   UN7TK   JT9 - 25 dB Richard Haledon
WN8U   14334.0   25 May 00:38   WN8U   NPOTA TR04
W9IMS   14249.0   25 May 00:37   WY9T   Indpls Spdway SE 2nd Race
EY7AD   14071.3   25 May 00:37   W3LPL   PSK31 Heard in NH
W9IMS   7240.0   25 May 00:37   WY9T   Indpls Spdway SE 2nd Race
RX9JX   14013.0   25 May 00:37   KC1I  
W9IMS   14249.1   25 May 00:37   KD6WKY   LID Tuners on Freq. Sheesh
K4JEE/B   28254.0   25 May 00:37   KW4RZ   EM60QK<ES>EM78RD strong
KD5AW   14170.0   25 May 00:36   VE3QVL   5/9 southern ontario ES!
VA3MJR   14078.0   25 May 00:35   UN7TK   JT9 - 21 dB David Hamilton
VK9NT   21087.8   25 May 00:34   N5XZ   qsx 21089.29
YT1AA   3799.0   25 May 00:34   PY3OR   CQ CQ
VK6LC   14085.0   25 May 00:34   PT7ZT   tnx MAL
KA6U   14270.0   25 May 00:33   WR8O   NPOTA NP-09
VK6LC   14085.0   25 May 00:33   WP4JT   TNX MAL RTTY
UN7TX   7002.0   25 May 00:32   CE2AWW   CQ
YT1AA   3799.0   25 May 00:31   YU1RF   cq dx
HP1RN   10104.0   25 May 00:30   N7ELL  
JH1EEB   14078.0   25 May 00:29   UN7TK   JT9 - 15 dB Suzuki Masaru Tokyo
VI9ANZAC   14221.0   25 May 00:28   VK4VDX   59 tu 73s
W9IMS   7240.0   25 May 00:26   W1CLA   Indianapolis Motor Speedway
HP1RN   10104.0   25 May 00:25   K9NZ   Nice signal here
UA1ZFG   7076.0   25 May 00:25   YY7PMG   tnx vadim for qso jt65 73s cq cq cq
KA6U   14270.0   25 May 00:25   KK6NTL   NPOTA NP09 QSB
K1BZ   14084.0   25 May 00:24   WP4WV   599 IN PR RTTY TNX DE EDGAR
WA6SWM   14028.0   25 May 00:24   RU1ZC   TKS VINCE
W9IMS   7240.0   25 May 00:24   N2OCS   Indianapolis Motor Speedway
W1MBB   7138.0   25 May 00:24   M0DVD   Many Thx Matt
NP4A   7128.0   25 May 00:23   M0DVD   Many thanks.
RW4LC   7003.0   25 May 00:23   LU3MAM  
VI9ANZAC   14221.0   25 May 00:23   VK4MSA   5/9 nice signal special event
WP4WV   14086.0   25 May 00:22   K1BZ  
KC3CSI   7051.4   25 May 00:21   K4YMQ   EM63<>FN10NF Tnx Joseph
VI9ANZAC   14221.0   25 May 00:20   VK3GA   Tnx QSO nice sig into Melb
R7DA   14052.4   25 May 00:19   K3ORC  
W4CLM/B   28233.0   25 May 00:19   KW4RZ   EM60QK<ES>EM74
HP1RN   10104.0   25 May 00:19   W3LPL   Heard in PA and AZ
KB2SEO/B   28238.0   25 May 00:18   KW4RZ   EM60QK<ES>EM74PT
EY7AD   14085.0   25 May 00:18   WP4JT   tnx rtty
W9IMS   7240.0   25 May 00:17   KN9C   Motor Speedway
W1BHC   7150.5   25 May 00:17   KD8ZYD   good signal
TG9ADM   10112.0   25 May 00:17   W3LPL   Heard in NH
VK9NT   21087.9   25 May 00:16   K4JAF   RTTY NICE SIGNAL NW FL
WA2SFT/B   28269.0   25 May 00:16   KW4RZ   EM60QK<ES>
XE3RT   14010.1   25 May 00:16   RX6B   Manuel, tnx qso!
WA4OTD/B   28279.0   25 May 00:15   KW4RZ   EM60QK<ES>EM69
K5TLJ/B   28291.0   25 May 00:15   KW4RZ   EM60QK<ES>EM45RQ
EY7AD   14082.3   25 May 00:14   W3LPL   RTTY Heard in MD
W1MBB   7138.0   25 May 00:14   M0WRI   TNX QSO MATT 59/ 73
VK9NT   21087.9   25 May 00:14   K5YY   Allan good op. Sum QSB. TU!
W9IMS   7240.0   25 May 00:14   WY9T   Indy 500 SE 2nd Race
W9IMS   14249.0   25 May 00:13   ZL2CC   55 into ZL NI via SP
K5TLL/B   28298.0   25 May 00:13   KE4TWI   EM66VC<ES>EM51
W9IMS   14249.0   25 May 00:12   WY9T   Indy 500 SE 2nd Race
INDY   14249.0   25 May 00:12   WY9T   500 SE 2nd Race
WP4JT   14086.0   25 May 00:12   K1BZ  
G8VZT   5403.5   25 May 00:11   OY1R   cq cq QRN tonight.
VI9ANZAC   14221.0   25 May 00:10   VK3DN   Special Event ANZAC Station Norfolk Island
KA6U   14270.0   25 May 00:09   N2CHD   Nice Sig into NY state
KA6U   14270.0   25 May 00:08   KC2BBI   NPOTA NP09 TU from NY
W1MBB   7138.0   25 May 00:08   MW6WFF   Tnx Matt QSO 59+20 73s
W9IFW   14078.0   25 May 00:07   UN7TK   JT9 - 24 dB Norman New Palestine
OM5XX   10110.0   25 May 00:06   N7TY   nw hr
SP7ASZ   10113.5   25 May 00:06   K8DSS   tnx Andy
LU4HA   7136.0   25 May 00:06   PY2OSD   Gracias Amigo 73
RU1ZC   14028.0   25 May 00:04   W5ZO  
WB3JIA   14245.0   25 May 00:04   KF4ILV   579
VK9NT   21087.9   25 May 00:04   JI1CPN   RTTY UP
NP4A   7128.0   25 May 00:04   IV3BCM   Puerto Rico
RZ3ZM   14214.0   25 May 00:03   NK3Y  
C08ZZ   10109.0   25 May 00:02   K1NIT  
VK9NT   21087.9   25 May 00:03   K7MTR   RTTY up 1
KA6U   14270.0   25 May 00:02   N6YEU   NPOTA NP09 Capitol Reef NP(Utah)
RZ3ZM   14214.0   25 May 00:01   NO5F  
TF8KY   14076.0   25 May 00:01   KB3OZC   jt65
NG1I   14080.2   25 May 00:00   NG1I   Need KH6 #50 RTTY W.A.S.
I2SDD   14078.0   25 May 00:00   UN7TK   JT9 - 18 dB Ugo Montanaso Lombardo
RU1ZC   14028.0   24 May 23:59   K2OF   valentin
RZ3ZM   14214.0   24 May 23:58   K3NUI   tnx anatoly
N1MD   14085.0   24 May 23:58   WP4JT   tnx for rtty
W9IMS   14249.0   24 May 23:58   KH6VM   Indianapolis Motor Speedway
KA6U   14270.0   24 May 23:58   N7ELL  
VI9ANZAC   14221.0   24 May 23:58   VK7WN   tnx to Ross on Norfolk Island for pleasant qso 73 from Hobart
S52R   14035.2   24 May 23:57   F6FUD   Tnx Tone - 73
VK9NT   21088.0   24 May 23:57   VK5XDX   Rtty up1
VO2PRS   14050.0   24 May 23:56   K3ORC  
K2EZ   7243.0   24 May 23:55   K2EZ/5   NPOTA RC07 Deleware Water Gap
A61CK   14245.0   24 May 23:55   W8WLK   57 in Ohio
VE3OU   7029.0   24 May 23:55   W2XB  
A61CK   14244.9   24 May 23:54   NK3Y  
KE0HWZ   14226.0   24 May 23:53   KE0HQZ   Calling CQ from Colorado
OM3SEM   14242.7   24 May 23:52   K6RLA   57 in Arkansas
WP4JT   14085.0   24 May 23:51   RU9SA   tnx qso
W1LX   14260.0   24 May 23:51   W8MSP   59
A61CK   14244.9   24 May 23:51   KE0HWZ   Why no split?
W8FHF   10140.0   24 May 23:50   9A6IV   JT9
RU9SA   14085.0   24 May 23:50   WP4JT   tnx rtty
NP4A   7128.0   24 May 23:49   MW6WFF   Tnx Pedro 59+20 73s
JA1NUT   14032.5   24 May 23:48   K6RC  
KA6U   14270.0   24 May 23:48   KB9AVX   NP
KA6U   14270.0   24 May 23:48   W9WO   NPOTA NP09
W9IMS   7240.0   24 May 23:47   KD8ZYD   Indy Speed Way Strong Signal
VA2AM   14274.0   24 May 23:47   VA2AM   CQ Asia with JA3CZY
A61CK   14245.0   24 May 23:46   NJ5V   Mohammd
TEST   14000.0   24 May 23:46   NP4IL   test.
A61CK   14245.0   24 May 23:46   K2IOF   still 59
VK3XDM/P   7090.0   24 May 23:46   VK3HRA   WWFF VKFF-0619 - VK3/VE-017
A61CK   14245.0   24 May 23:45   N8MAS  
OM3SEM   14242.1   24 May 23:45   N1UIR   59+10 in Ct. Thx Tibor
4X6TT   14200.0   24 May 23:45   W8WLK   59 in Ohio
CN8AM   14195.0   24 May 23:44   WA2BJN   ABDOU - EQSL
OH2BLV   14258.0   24 May 23:44   K2IOF   59 in NJ
KC3CSI   7051.5   24 May 23:42   K3MJW   14 yr old op!!
W1LX   14260.0   24 May 23:42   W3MDS  
BX4AG   18075.9   24 May 23:42   DS1RLZ  
OH2BLV   14258.5   24 May 23:42   K3NUI   tnx markku
OM3SEM   14242.1   24 May 23:41   N4WIY  
KA6U   14270.0   24 May 23:40   W1CLA   NPOTA NP09
7Z1JA   14023.0   24 May 23:41   WP4JT   59+ tnx 73
OM3SEM   14242.2   24 May 23:40   KF4NBG  
VA2AM   18145.0   24 May 23:40   VA2AM   CQ Asia with JA3CZY
K2EZ   14323.0   24 May 23:39   K6VIA   RC07
OM5XX   14022.5   24 May 23:39   W5SQZ   TNX John - sig is building; 20 mtr strong/soft!
4X6TT   14200.0   24 May 23:38   TF3DT   59 + into Reykjavik
KA6U   14270.0   24 May 23:37   K9EGS   NPOTA NP09
OM3SEM   14242.1   24 May 23:37   W1CLA  
M0ICR   14216.0   24 May 23:36   VE4MAR   59 carl, 73...
W1LX   14260.0   24 May 23:36   W6RDF   QSOs for WAS --- NH USB
7Z1JA   14023.0   24 May 23:36   KP3W   TU
W8SGT   7253.0   24 May 23:36   KB8ZUN   Ohio ARES
DL0ESA   14160.0   24 May 23:35   AE4TQ   Heard in GA
OM3SEM   14242.1   24 May 23:35   N1BMT   59+
K2EZ   14323.0   24 May 23:35   N2RJ  
KA6U   14270.0   24 May 23:35   N5KWD   NPOTA - NP09
WP4PJK   7180.0   24 May 23:33   WP4PJK   CQ DX CQ DX
VI9ANZAC   14221.0   24 May 23:34   VK3OHM   52 in Melbourne
OM3SEM   14242.2   24 May 23:33   W5SQZ   TNX Tibor - and sig building!
ON7PQ   10107.0   24 May 23:33   K3ORC  
KA6U   14270.0   24 May 23:33   W6RDF   NPOTA NP09 USB
OM3SEM   14242.1   24 May 23:32   K4AAP   59 NC
M0ICR   14285.0   24 May 23:32   M0ICR   testing, beaming NA
4X6TT   14200.0   24 May 23:31   W4OG   remote from Atlanta - loud
PU4ISA   3576.0   24 May 23:31   PU2MBO   JT65
LU8EX   3576.0   24 May 23:30   PU2MBO   JT65
XE1XR   14009.2   24 May 23:30   NJ1T   Strong
OM3SEM   14242.0   24 May 23:30   N1EEQ   59 TIBOR Great Sig. "73"
OE5MSM   7178.0   24 May 23:30   I2/DF7RW/P   73 Signal down Sm-6/IC-7300 works good
OM3SEM   14242.1   24 May 23:28   NO5F  
KL7SB/VP9   10121.0   24 May 23:28   AI9T  
W9IMS   7240.0   24 May 23:27   KB8ZUN  
KL7SB/VP9   10120.9   24 May 23:27   OK1AMF  
OM3SEM   14242.0   24 May 23:27   N8MAS  
OM3SEM   14242.0   24 May 23:27   K2CSR  
SV2RSH   14263.0   24 May 23:27   NO5F  
KL7SB/VP9   10121.0   24 May 23:26   HK1MW   Quite, quite low thanks
OM5XX   14022.5   24 May 23:26   KP3W   CQ
K2EZ   14323.0   24 May 23:26   K2EZ/5   NPOTA RC07 Deleware Water Gap
A61CK   14244.9   24 May 23:26   VE4MAR   59 in mb, tnx 73...
OM3SEM   14242.1   24 May 23:26   K3NUI   tnx tibor
VO2NS   14268.3   24 May 23:25   KA4AQM   BOOMIN n2 Norfolk VA
4X6TT   14200.0   24 May 23:24   KV4TU   Operating Remote 5x9 into NC
W1QS   7005.0   24 May 23:24   OK1AMF  
NT4F/B   28210.0   24 May 23:24   KE4TWI   EM66VC<ES>FM14
OM3SEM   14242.0   24 May 23:24   K2IOF   59 in NJ
SV2RSH   14263.0   24 May 23:23   N8MAS  
UN5J   14078.0   24 May 23:23   FG1JS   JT9 TNX QSO 73
A61CK   14245.0   24 May 23:23   K3NUI   tnx mohammed
PJ2/PF4T   14080.0   24 May 23:22   RU9SA   tnx qso
OM3SEM   14242.2   24 May 23:22   VE2VB   Tibor very strong sigs
KL7SB/VP9   10120.9   24 May 23:21   N5XZ   steve
KA9ADD   28400.0   24 May 23:21   KC4EOG   10m IS WIDE OPEN
7X4AN   14012.5   24 May 23:21   N9ZI  
VK9NT   24930.0   24 May 23:20   AB5GG   Where are you guys?
NC8N   7270.0   24 May 23:19   W8MSP   SS04 NPOA
EA5TW   14220.0   24 May 23:19   UA9UX   cq cq
OM3SEM   14242.1   24 May 23:19   WA2ZFO   59 to NJ
JY4CI   14237.0   24 May 23:18   K3NUI   tnx rafiq qrt
XE1XR   14010.0   24 May 23:17   EA4CRP   tnx qso 599